Location: Castellar de la Frontera
(36.3200°N, 5.4500°W)
Time: 22:38:52
(UTC+02:00)

ISS - Pass Details

Date: 19 July 2018
Orbit: 402 x 408 km, 51.6° (Epoch: 22 July)

Event Time Altitude Azimuth Distance (km) Brightness Sun altitude
Exits shadow 01:30:31 11° 342° (NNW) 1,390 -0.3 -31.2°
Drops below altitude 10° 01:31:25 10° 358° (N) 1,463 -0.2 -31.2°
Sets 01:34:47 0° 35° (NE) 2,327 0.5 -31.4°
